SAS25 ENBO-ENSB

Flight info

Callsign SAS25
Flight time 1h 46m
Altitude 34000
Route MUGIF DCT ELRES DCT ADV
Aircraft A319/M-SDE3FGHIRWY/LB1

Departure

Time 2026-04-24 22:07
Airport Bodø Airport (ENBO)

Arrival

Time 2026-04-24 23:54
Airport Svalbard Airport, Longyear (ENSB)
Time Latitude Longitude Altitude Speed Heading
2026-04-24 21:37 67.27150 14.36881 45 ft 0 kts 325°
2026-04-24 21:58 67.27146 14.36888 44 ft 3 kts 325°
2026-04-24 21:59 67.27124 14.36927 45 ft 4 kts 324°
2026-04-24 21:59 67.27103 14.36968 42 ft 4 kts 324°
2026-04-24 21:59 67.27094 14.36984 45 ft 1 kts 324°
2026-04-24 21:59 67.27093 14.36985 45 ft 0 kts 324°
2026-04-24 22:03 67.27094 14.36983 45 ft 0 kts 324°
2026-04-24 22:03 67.27098 14.36958 43 ft 4 kts 291°
2026-04-24 22:03 67.27083 14.36839 42 ft 11 kts 250°
2026-04-24 22:04 67.27054 14.36574 40 ft 19 kts 260°
2026-04-24 22:04 67.27028 14.36188 42 ft 24 kts 260°
2026-04-24 22:04 67.26991 14.35708 40 ft 30 kts 257°
2026-04-24 22:04 67.26942 14.35128 38 ft 35 kts 258°
2026-04-24 22:05 67.26891 14.34505 35 ft 35 kts 258°
2026-04-24 22:05 67.26842 14.33915 33 ft 29 kts 257°
2026-04-24 22:05 67.26801 14.33451 32 ft 22 kts 248°
2026-04-24 22:05 67.26719 14.33405 32 ft 11 kts 167°
2026-04-24 22:06 67.26669 14.33483 32 ft 8 kts 109°
2026-04-24 22:06 67.26683 14.33688 33 ft 18 kts 80°
2026-04-24 22:06 67.26747 14.34439 33 ft 74 kts 78°
2026-04-24 22:06 67.26900 14.36247 40 ft 131 kts 77°
2026-04-24 22:07 67.27120 14.38857 340 ft 154 kts 73°
2026-04-24 22:07 67.27270 14.41616 1023 ft 158 kts 85°
2026-04-24 22:07 67.27199 14.44485 1740 ft 161 kts 88°
2026-04-24 22:07 67.27425 14.47330 2131 ft 170 kts 52°
2026-04-24 22:08 67.28326 14.49539 2454 ft 190 kts 37°
2026-04-24 22:08 67.29394 14.51841 2963 ft 207 kts 38°
2026-04-24 22:08 67.30498 14.54267 3892 ft 209 kts 38°
2026-04-24 22:08 67.31610 14.56740 4893 ft 212 kts 38°
2026-04-24 22:09 67.32738 14.59266 5872 ft 216 kts 38°
2026-04-24 22:09 67.33880 14.61836 6804 ft 219 kts 38°
2026-04-24 22:09 67.35040 14.64451 7739 ft 223 kts 38°
2026-04-24 22:09 67.36220 14.67110 8666 ft 227 kts 38°
2026-04-24 22:10 67.37442 14.69741 9623 ft 230 kts 31°
2026-04-24 22:10 67.38899 14.71428 10483 ft 231 kts 12°
2026-04-24 22:10 67.40538 14.71739 11057 ft 248 kts 353°
2026-04-24 22:10 67.42259 14.70573 11415 ft 271 kts 342°
2026-04-24 22:11 67.44144 14.69029 11726 ft 295 kts 342°
2026-04-24 22:11 67.46161 14.67392 12247 ft 309 kts 343°
2026-04-24 22:11 67.48236 14.65719 13032 ft 314 kts 343°
2026-04-24 22:11 67.50336 14.64034 13812 ft 318 kts 342°
2026-04-24 22:12 67.52462 14.62331 14555 ft 321 kts 342°
2026-04-24 22:12 67.54609 14.60614 15293 ft 324 kts 342°
2026-04-24 22:12 67.56781 14.58872 15994 ft 328 kts 342°
2026-04-24 22:12 67.58977 14.57109 16715 ft 332 kts 341°
2026-04-24 22:13 67.61192 14.55324 17433 ft 335 kts 341°
2026-04-24 22:13 67.63435 14.53506 18135 ft 339 kts 341°
2026-04-24 22:13 67.65699 14.51668 18753 ft 342 kts 341°
2026-04-24 22:13 67.67986 14.49808 19377 ft 345 kts 341°
2026-04-24 22:14 67.70292 14.47938 20005 ft 349 kts 342°
2026-04-24 22:14 67.72704 14.46827 20605 ft 356 kts 354°
2026-04-24 22:14 67.75199 14.47166 21201 ft 363 kts
2026-04-24 22:14 67.77649 14.49029 21792 ft 372 kts 19°
2026-04-24 22:15 67.79932 14.52434 22343 ft 381 kts 32°
2026-04-24 22:15 67.82065 14.56682 22926 ft 385 kts 33°
2026-04-24 22:15 67.84215 14.60982 23443 ft 389 kts 33°
2026-04-24 22:15 67.86385 14.65321 23865 ft 393 kts 33°
2026-04-24 22:16 67.88578 14.69700 24336 ft 396 kts 33°
2026-04-24 22:16 67.90785 14.74111 24786 ft 398 kts 33°
2026-04-24 22:16 67.92976 14.78505 25193 ft 402 kts 33°
2026-04-24 22:16 67.95218 14.83016 25583 ft 406 kts 33°
2026-04-24 22:17 67.97476 14.87573 25963 ft 410 kts 33°
2026-04-24 22:17 67.99760 14.92188 26355 ft 414 kts 33°
2026-04-24 22:17 68.02065 14.96856 26725 ft 417 kts 33°
2026-04-24 22:17 68.04389 15.01574 27093 ft 421 kts 33°
2026-04-24 22:18 68.06731 15.06350 27459 ft 425 kts 33°
2026-04-24 22:18 68.09090 15.11171 27816 ft 429 kts 33°
2026-04-24 22:18 68.11470 15.16056 28174 ft 433 kts 33°
2026-04-24 22:18 68.13864 15.20987 28516 ft 436 kts 33°
2026-04-24 22:19 68.16284 15.25975 28891 ft 440 kts 33°
2026-04-24 22:19 68.18758 15.30851 29218 ft 441 kts 28°
2026-04-24 22:19 68.21443 15.34786 29541 ft 440 kts 20°
2026-04-24 22:19 68.24323 15.37567 29846 ft 438 kts 11°
2026-04-24 22:20 68.27304 15.39133 30091 ft 438 kts
2026-04-24 22:20 68.30327 15.40371 30354 ft 440 kts
2026-04-24 22:20 68.33363 15.41638 30614 ft 443 kts
2026-04-24 22:20 68.36418 15.42935 30869 ft 445 kts
2026-04-24 22:21 68.39450 15.44242 31120 ft 448 kts
2026-04-24 22:21 68.42539 15.45586 31404 ft 450 kts
2026-04-24 22:21 68.45629 15.46934 31763 ft 449 kts
2026-04-24 22:21 68.48714 15.48280 32146 ft 449 kts
2026-04-24 22:22 68.51800 15.49625 32493 ft 449 kts
2026-04-24 22:22 68.54888 15.50970 32844 ft 449 kts
2026-04-24 22:22 68.57980 15.52322 33187 ft 450 kts
2026-04-24 22:22 68.61070 15.53684 33529 ft 450 kts
2026-04-24 22:23 68.64166 15.55048 33728 ft 451 kts
2026-04-24 22:23 68.70297 15.57757 33768 ft 442 kts
2026-04-24 22:24 68.76307 15.60415 33763 ft 440 kts
2026-04-24 22:24 68.82353 15.63098 33777 ft 440 kts
2026-04-24 22:25 68.88395 15.65830 33754 ft 440 kts
2026-04-24 22:25 68.94439 15.68561 33744 ft 439 kts
2026-04-24 22:26 69.00482 15.71288 33750 ft 439 kts
2026-04-24 22:26 69.06518 15.74045 33748 ft 439 kts
2026-04-24 22:27 69.12554 15.76804 33735 ft 439 kts
2026-04-24 22:27 69.18592 15.79586 33762 ft 439 kts
2026-04-24 22:28 69.24616 15.82377 33754 ft 439 kts
2026-04-24 22:28 69.30647 15.85182 33749 ft 439 kts
2026-04-24 22:29 69.39651 15.89408 33734 ft 439 kts
2026-04-24 22:29 69.45673 15.92282 33731 ft 439 kts
2026-04-24 22:30 69.51696 15.95160 33745 ft 439 kts
2026-04-24 22:30 69.57728 15.98028 33739 ft 439 kts
2026-04-24 22:31 69.62778 16.00440 33732 ft 439 kts
2026-04-24 22:31 69.68807 16.03366 33729 ft 439 kts
2026-04-24 22:32 69.74801 16.06274 33720 ft 439 kts
2026-04-24 22:32 69.80839 16.09240 33718 ft 439 kts
2026-04-24 22:33 69.86865 16.12208 33733 ft 439 kts
2026-04-24 22:33 69.92883 16.15183 33726 ft 438 kts
2026-04-24 22:34 69.98901 16.18159 33722 ft 438 kts
2026-04-24 22:34 70.04911 16.21160 33711 ft 438 kts
2026-04-24 22:35 70.10917 16.24195 33710 ft 438 kts
2026-04-24 22:35 70.16920 16.27250 33723 ft 438 kts
2026-04-24 22:36 70.22906 16.29573 33718 ft 434 kts 358°
2026-04-24 22:36 70.28939 16.29414 33700 ft 433 kts 357°
2026-04-24 22:37 70.34973 16.29277 33692 ft 433 kts 357°
2026-04-24 22:37 70.41008 16.29167 33687 ft 433 kts 357°
2026-04-24 22:38 70.47030 16.29050 33678 ft 433 kts 357°
2026-04-24 22:38 70.53047 16.28911 33685 ft 432 kts 357°
2026-04-24 22:39 70.59066 16.28771 33675 ft 432 kts 357°
2026-04-24 22:39 70.65075 16.28621 33682 ft 432 kts 357°
2026-04-24 22:40 70.71091 16.28481 33677 ft 432 kts 357°
2026-04-24 22:40 70.77103 16.28348 33678 ft 432 kts 357°
2026-04-24 22:41 70.83109 16.28218 33677 ft 432 kts 357°
2026-04-24 22:41 70.89118 16.28071 33676 ft 431 kts 357°
2026-04-24 22:42 70.95075 16.27927 33678 ft 431 kts 357°
2026-04-24 22:42 71.01067 16.27797 33668 ft 430 kts 357°
2026-04-24 22:43 71.07051 16.27665 33669 ft 430 kts 357°
2026-04-24 22:43 71.13029 16.27525 33670 ft 429 kts 357°
2026-04-24 22:44 71.18999 16.27377 33655 ft 429 kts 357°
2026-04-24 22:44 71.24971 16.27225 33674 ft 429 kts 358°
2026-04-24 22:45 71.30943 16.27061 33660 ft 429 kts 357°
2026-04-24 22:45 71.36916 16.26912 33659 ft 429 kts 358°
2026-04-24 22:46 71.42893 16.26780 33653 ft 429 kts 357°
2026-04-24 22:46 71.48863 16.26645 33647 ft 429 kts 358°
2026-04-24 22:47 71.54831 16.26523 33650 ft 429 kts 357°
2026-04-24 22:47 71.60808 16.26364 33652 ft 429 kts 358°
2026-04-24 22:48 71.66787 16.26206 33653 ft 430 kts 358°
2026-04-24 22:48 71.72736 16.26059 33660 ft 430 kts 358°
2026-04-24 22:49 71.78712 16.25906 33656 ft 430 kts 358°
2026-04-24 22:49 71.84707 16.25764 33659 ft 430 kts 358°
2026-04-24 22:50 71.90694 16.25607 33664 ft 430 kts 358°
2026-04-24 22:50 71.96688 16.25457 33673 ft 431 kts 358°
2026-04-24 22:51 72.02684 16.25299 33674 ft 431 kts 358°
2026-04-24 22:51 72.08681 16.25150 33679 ft 431 kts 358°
2026-04-24 22:52 72.14680 16.25000 33686 ft 431 kts 358°
2026-04-24 22:52 72.20647 16.24835 33683 ft 431 kts 358°
2026-04-24 22:53 72.26645 16.24665 33682 ft 431 kts 358°
2026-04-24 22:53 72.32637 16.24497 33697 ft 431 kts 358°
2026-04-24 22:54 72.38631 16.24348 33690 ft 430 kts 358°
2026-04-24 22:54 72.44620 16.24198 33687 ft 430 kts 358°
2026-04-24 22:55 72.50602 16.24034 33682 ft 430 kts 358°
2026-04-24 22:55 72.56587 16.23870 33685 ft 430 kts 358°
2026-04-24 22:56 72.62566 16.23716 33690 ft 429 kts 358°
2026-04-24 22:56 72.68508 16.23552 33697 ft 429 kts 359°
2026-04-24 22:57 72.74484 16.23359 33696 ft 430 kts 359°
2026-04-24 22:57 72.80466 16.23187 33687 ft 430 kts 359°
2026-04-24 22:58 72.86440 16.23027 33694 ft 429 kts 358°
2026-04-24 22:58 72.92410 16.22849 33701 ft 428 kts 358°
2026-04-24 22:59 72.98366 16.22664 33695 ft 428 kts 358°
2026-04-24 23:00 73.07301 16.22429 33704 ft 428 kts 359°
2026-04-24 23:00 73.13248 16.22250 33706 ft 427 kts 359°
2026-04-24 23:01 73.19205 16.22055 33700 ft 427 kts 359°
2026-04-24 23:01 73.25143 16.21876 33699 ft 427 kts 359°
2026-04-24 23:02 73.31082 16.21707 33699 ft 426 kts 359°
2026-04-24 23:02 73.36980 16.21537 33691 ft 427 kts 359°
2026-04-24 23:03 73.42912 16.21348 33699 ft 426 kts 359°
2026-04-24 23:03 73.48853 16.21168 33691 ft 426 kts 359°
2026-04-24 23:04 73.54784 16.20980 33701 ft 426 kts 359°
2026-04-24 23:04 73.60708 16.20792 33705 ft 425 kts 359°
2026-04-24 23:05 73.66631 16.20603 33694 ft 426 kts 359°
2026-04-24 23:05 73.72557 16.20421 33697 ft 425 kts 359°
2026-04-24 23:06 73.78483 16.20240 33695 ft 426 kts 359°
2026-04-24 23:06 73.84373 16.20071 33699 ft 425 kts 359°
2026-04-24 23:07 73.90295 16.19891 33710 ft 425 kts 359°
2026-04-24 23:07 73.96227 16.19707 33700 ft 426 kts 359°
2026-04-24 23:08 74.02147 16.19495 33699 ft 425 kts 359°
2026-04-24 23:08 74.08063 16.19289 33709 ft 425 kts 359°
2026-04-24 23:09 74.13971 16.19106 33723 ft 424 kts 359°
2026-04-24 23:09 74.19878 16.18941 33730 ft 423 kts 359°
2026-04-24 23:10 74.25771 16.18752 33720 ft 424 kts 359°
2026-04-24 23:10 74.31669 16.18508 33725 ft 423 kts 359°
2026-04-24 23:11 74.37564 16.18267 33718 ft 424 kts 359°
2026-04-24 23:11 74.43456 16.18078 33721 ft 423 kts 359°
2026-04-24 23:12 74.49337 16.17871 33743 ft 423 kts 359°
2026-04-24 23:12 74.55224 16.17675 33728 ft 423 kts 359°
2026-04-24 23:13 74.61119 16.17474 33729 ft 423 kts 359°
2026-04-24 23:13 74.66983 16.17283 33731 ft 424 kts 359°
2026-04-24 23:14 74.72884 16.17071 33736 ft 424 kts 359°
2026-04-24 23:14 74.78790 16.16842 33747 ft 424 kts 359°
2026-04-24 23:15 74.83735 16.16679 33741 ft 424 kts 359°
2026-04-24 23:15 74.89607 16.16492 33738 ft 425 kts
2026-04-24 23:16 74.95529 16.16271 33741 ft 426 kts 360°
2026-04-24 23:16 75.01451 16.16026 33755 ft 426 kts 360°
2026-04-24 23:17 75.07383 16.15794 33754 ft 426 kts
2026-04-24 23:17 75.13315 16.15569 33762 ft 426 kts 360°
2026-04-24 23:18 75.19242 16.14587 33769 ft 426 kts 356°
2026-04-24 23:18 75.25150 16.12192 33760 ft 427 kts 354°
2026-04-24 23:19 75.31055 16.09623 33774 ft 427 kts 354°
2026-04-24 23:19 75.36968 16.07328 33773 ft 427 kts 355°
2026-04-24 23:20 75.42878 16.05175 33800 ft 426 kts 355°
2026-04-24 23:20 75.48786 16.03006 33795 ft 426 kts 355°
2026-04-24 23:21 75.54693 16.00790 33811 ft 426 kts 355°
2026-04-24 23:21 75.60593 15.98539 33806 ft 426 kts 355°
2026-04-24 23:22 75.66505 15.96267 33797 ft 427 kts 355°
2026-04-24 23:22 75.72430 15.93949 33807 ft 427 kts 355°
2026-04-24 23:23 75.78351 15.91615 33806 ft 428 kts 355°
2026-04-24 23:23 75.84271 15.89268 33836 ft 428 kts 355°
2026-04-24 23:24 75.90161 15.86934 33831 ft 428 kts 355°
2026-04-24 23:24 75.96108 15.84529 33836 ft 428 kts 355°
2026-04-24 23:25 76.02045 15.82129 33840 ft 428 kts 355°
2026-04-24 23:25 76.07983 15.79716 33843 ft 429 kts 355°
2026-04-24 23:26 76.13929 15.77276 33840 ft 429 kts 355°
2026-04-24 23:26 76.19873 15.74825 33850 ft 429 kts 355°
2026-04-24 23:27 76.25820 15.72343 33862 ft 429 kts 355°
2026-04-24 23:27 76.31759 15.69833 33869 ft 429 kts 354°
2026-04-24 23:28 76.37668 15.67319 33882 ft 429 kts 355°
2026-04-24 23:28 76.43649 15.64731 33872 ft 430 kts 355°
2026-04-24 23:28 76.46630 15.63430 33684 ft 430 kts 355°
2026-04-24 23:29 76.49583 15.62147 33055 ft 431 kts 355°
2026-04-24 23:29 76.52558 15.60856 32583 ft 428 kts 355°
2026-04-24 23:29 76.55515 15.59562 32094 ft 425 kts 355°
2026-04-24 23:29 76.58444 15.58269 31605 ft 422 kts 355°
2026-04-24 23:30 76.61360 15.56970 31113 ft 419 kts 355°
2026-04-24 23:30 76.64253 15.55673 30632 ft 417 kts 355°
2026-04-24 23:30 76.67127 15.54381 30152 ft 414 kts 355°
2026-04-24 23:30 76.69983 15.53107 29614 ft 411 kts 356°
2026-04-24 23:31 76.72814 15.51855 29144 ft 406 kts 356°
2026-04-24 23:31 76.75609 15.50607 28686 ft 401 kts 355°
2026-04-24 23:31 76.78367 15.49356 28230 ft 396 kts 356°
2026-04-24 23:31 76.81097 15.48114 27798 ft 392 kts 356°
2026-04-24 23:32 76.83795 15.46881 27370 ft 388 kts 356°
2026-04-24 23:32 76.86477 15.45651 26943 ft 385 kts 356°
2026-04-24 23:32 76.89125 15.44434 26542 ft 381 kts 356°
2026-04-24 23:32 76.91757 15.43229 26145 ft 378 kts 356°
2026-04-24 23:33 76.94363 15.42008 25749 ft 375 kts 356°
2026-04-24 23:33 76.96946 15.40795 25360 ft 372 kts 356°
2026-04-24 23:33 76.99514 15.39601 24978 ft 369 kts 356°
2026-04-24 23:33 77.02057 15.38401 24582 ft 366 kts 356°
2026-04-24 23:34 77.04577 15.37210 24192 ft 363 kts 356°
2026-04-24 23:34 77.07083 15.36034 23793 ft 360 kts 356°
2026-04-24 23:34 77.09567 15.34858 23371 ft 358 kts 356°
2026-04-24 23:34 77.12029 15.33682 22938 ft 353 kts 356°
2026-04-24 23:35 77.14457 15.32514 22521 ft 349 kts 356°
2026-04-24 23:35 77.16858 15.31346 22115 ft 345 kts 356°
2026-04-24 23:35 77.19228 15.30186 21710 ft 341 kts 356°
2026-04-24 23:35 77.21571 15.29052 21302 ft 337 kts 356°
2026-04-24 23:36 77.23894 15.27951 20904 ft 334 kts 356°
2026-04-24 23:36 77.26161 15.26873 20502 ft 331 kts 355°
2026-04-24 23:36 77.28442 15.25770 20100 ft 328 kts 355°
2026-04-24 23:36 77.30703 15.24647 19690 ft 326 kts 355°
2026-04-24 23:37 77.32949 15.23513 19292 ft 324 kts 355°
2026-04-24 23:37 77.35179 15.22399 18894 ft 322 kts 355°
2026-04-24 23:37 77.39605 15.20181 18068 ft 318 kts 355°
2026-04-24 23:38 77.41809 15.19086 17650 ft 315 kts 355°
2026-04-24 23:38 77.43980 15.18005 17258 ft 312 kts 355°
2026-04-24 23:38 77.46128 15.16931 16865 ft 309 kts 355°
2026-04-24 23:38 77.48255 15.15867 16483 ft 306 kts 355°
2026-04-24 23:39 77.50367 15.14804 16085 ft 304 kts 355°
2026-04-24 23:39 77.52462 15.13746 15709 ft 302 kts 355°
2026-04-24 23:39 77.54547 15.12677 15313 ft 300 kts 355°
2026-04-24 23:39 77.56611 15.11611 14942 ft 298 kts 355°
2026-04-24 23:40 77.58665 15.10560 14579 ft 295 kts 355°
2026-04-24 23:40 77.60675 15.09535 14212 ft 294 kts 356°
2026-04-24 23:40 77.62701 15.08502 13842 ft 292 kts 356°
2026-04-24 23:40 77.64716 15.07462 13445 ft 290 kts 355°
2026-04-24 23:41 77.66712 15.06414 13066 ft 287 kts 355°
2026-04-24 23:41 77.68689 15.05365 12697 ft 285 kts 355°
2026-04-24 23:41 77.70646 15.04318 12357 ft 282 kts 355°
2026-04-24 23:41 77.72588 15.03285 12001 ft 279 kts 355°
2026-04-24 23:42 77.74516 15.02279 11642 ft 277 kts 355°
2026-04-24 23:42 77.76430 15.01291 11292 ft 275 kts 355°
2026-04-24 23:42 77.78302 15.00326 10952 ft 273 kts 355°
2026-04-24 23:42 77.80186 14.99341 10613 ft 271 kts 355°
2026-04-24 23:43 77.82055 14.98347 10279 ft 270 kts 355°
2026-04-24 23:43 77.83918 14.97350 10061 ft 268 kts 355°
2026-04-24 23:43 77.85784 14.96337 9972 ft 270 kts 355°
2026-04-24 23:43 77.87654 14.95321 9734 ft 272 kts 355°
2026-04-24 23:44 77.89537 14.94307 9293 ft 272 kts 355°
2026-04-24 23:44 77.91410 14.93292 8916 ft 270 kts 355°
2026-04-24 23:44 77.93268 14.92288 8557 ft 267 kts 355°
2026-04-24 23:44 77.95106 14.91294 8195 ft 264 kts 356°
2026-04-24 23:45 77.96925 14.90306 7837 ft 262 kts 356°
2026-04-24 23:45 77.98731 14.89327 7480 ft 259 kts 356°
2026-04-24 23:45 78.00509 14.88346 7122 ft 254 kts 356°
2026-04-24 23:45 78.02242 14.87379 6787 ft 249 kts 356°
2026-04-24 23:46 78.03941 14.86423 6455 ft 242 kts 356°
2026-04-24 23:46 78.05589 14.85494 6111 ft 235 kts 357°
2026-04-24 23:46 78.07185 14.84578 5787 ft 227 kts 356°
2026-04-24 23:46 78.08725 14.83418 5478 ft 221 kts 355°
2026-04-24 23:47 78.10217 14.82150 5280 ft 212 kts 355°
2026-04-24 23:47 78.11669 14.80881 4963 ft 212 kts 355°
2026-04-24 23:47 78.13107 14.79629 4655 ft 206 kts 356°
2026-04-24 23:47 78.14483 14.78421 4369 ft 196 kts 356°
2026-04-24 23:48 78.15776 14.77302 4112 ft 186 kts 356°
2026-04-24 23:48 78.17026 14.76237 3860 ft 178 kts 356°
2026-04-24 23:48 78.18241 14.75216 3605 ft 177 kts 355°
2026-04-24 23:48 78.19457 14.74568 3396 ft 175 kts
2026-04-24 23:49 78.20658 14.74966 3189 ft 172 kts 13°
2026-04-24 23:49 78.21810 14.76352 2985 ft 169 kts 21°
2026-04-24 23:49 78.22879 14.78638 2780 ft 167 kts 30°
2026-04-24 23:49 78.23847 14.81745 2581 ft 166 kts 38°
2026-04-24 23:50 78.24677 14.85514 2418 ft 156 kts 46°
2026-04-24 23:50 78.25327 14.89582 2189 ft 146 kts 56°
2026-04-24 23:50 78.25809 14.93732 2018 ft 135 kts 63°
2026-04-24 23:50 78.26150 14.97935 1850 ft 131 kts 71°
2026-04-24 23:51 78.26368 15.02240 1688 ft 130 kts 77°
2026-04-24 23:51 78.26473 15.06583 1533 ft 130 kts 84°
2026-04-24 23:51 78.26462 15.11042 1376 ft 131 kts 91°
2026-04-24 23:51 78.26327 15.15481 1222 ft 132 kts 98°
2026-04-24 23:52 78.26096 15.19837 1055 ft 132 kts 101°
2026-04-24 23:52 78.25855 15.24175 877 ft 131 kts 101°
2026-04-24 23:52 78.25609 15.28451 708 ft 129 kts 101°
2026-04-24 23:52 78.25362 15.32673 481 ft 127 kts 100°
2026-04-24 23:53 78.25140 15.36822 315 ft 125 kts 100°
2026-04-24 23:53 78.24924 15.40927 139 ft 124 kts 99°
2026-04-24 23:53 78.24717 15.44775 89 ft 104 kts 104°
2026-04-24 23:53 78.24570 15.47392 89 ft 55 kts 105°
2026-04-24 23:54 78.24493 15.48798 88 ft 27 kts 105°
2026-04-24 23:54 78.24510 15.49459 88 ft 19 kts 14°
2026-04-24 23:54 78.24600 15.49462 89 ft 10 kts 344°
2026-04-24 23:54 78.24643 15.49168 90 ft 9 kts 290°
2026-04-24 23:55 78.24644 15.49129 89 ft 0 kts 282°